BREEZE-M R/B, 44626

Orbit data source: Space-Track

BREEZE-M R/B, 44626 is space debris in HEO originally from a launch on Wed, 09 Oct 2019 UTC launched from the Tyuratam Missile And Space Complex (TTMTR). Debris objects in space refer to the collection of defunct objects orbiting the Earth. Examples of debris include non-operational satellites, rocket bodies, and fragments generated from explosions, collisions, or faulty payload assembly.

Loading next visibility...
Identifier
44626, 2019-067C
Orbit
HEO
Country
Flag of CISCIS
Related business
Manufacturer
Khrunichev
Mission
Spacecraft
Bus & Motor
BRIZ, Unknown motor
Mass
~1,600 kg wet, 1,600 kg dry
Launch date (UTC)
2019-10-09 (6 years ago)
Launch vehicle
Unknown
Launch site
Tyuratam Missile And Space Complex (TTMTR)
Object type
Payload
Rocket body
Debris
Shape & HBR
Cyl, 2.0 m
Radar Cross Section
14.451 m², Large (>1 m²)

Expand to show TLE details & history
Last TLE update: 2 days ago

TLE from 2 days ago
0 BREEZE-M R/B
1 44626U 19067C   25259.98323850 -.00000083  00000-0  00000-0 0  9998
2 44626  21.4128  67.5005 6552036 359.7329 359.9238  0.93850903 18533
Epoch: 2025-09-16T23:35Z
TLE epoch observation values (Epoch: 2025-09-16T23:35:51.806Z)
Latitude
0.00027°
Longitude
77.39699°
Altitude
8,906.836 km
Speed
6.566 km/s
True Right ascension
04h 30m 06s
True Declination
0° 00' 01"
Sunlit
Object was in daylight at epoch
Visualization orbit readout
Latitude
Unknown
Longitude
Unknown
Altitude
Unknown
Speed
Unknown
Apparent Right ascension
Unknown
Apparent Declination
Unknown
Sunlit
N/A
Visualization observer readout
Local Sidereal Time
17:40:55
Azimuth
Unknown
Elevation
Unknown
Doppler factor
Unknown
Orbital elements
Apogee altitude
66,564.172 km
Perigee altitude
8,816.517 km
Semi-major axis
44,068.481 km
Eccentricity
0.6552
Inclination
21.4128°
RAAN
67.5005°
Arg. of periapsis
359.7329°
True anomaly
359.51579°
Mean anomaly
359.9238°
Eccentric anomaly
359.779°
Mean motion
0.23461 °/min
Orbital period
1,534.45 mins
BSTAR
0
Loading maneuver chart data...
Computing Atmospheric mass density...
Loading historical data...
Loading historical data...
Loading historical data...
Loading historical data...
Loading historical data...
Loading historical data...
Loading historical data...
Other satellites on launch #67 in the year 2019 (2019-10-09 UTC)

Documentation

Showing up to 5 results
|